Location: São Paulo
(23.5507°S, 46.6334°W)
Time: 07:05:47
(UTC-03:00)

Transit 2A - Pass Details

Date: 20 February 2026
Orbit: 590 x 954 km, 66.7° (Epoch: 10 March)

Event Time Altitude Azimuth Distance (km) Brightness Sun altitude
Rises 23:04:48 0° 340° (NNW) 3,052 - -51.2°
Reaches altitude 10° 23:07:12 10° 340° (NNW) 2,090 - -51.5°
Maximum altitude 23:11:53 84° 68° (ENE) 641 - -52.0°
Drops below altitude 10° 23:16:17 10° 156° (SSE) 1,967 - -52.4°
Sets 23:18:29 0° 156° (SSE) 2,857 - -52.7°
